Flag for Norway Weather past 2 weeks in Jan Mayen, Jan Mayen, Norway

Now
41 °F

Quite cool.


Feels Like: 41 °F
Forecast: 40 / 42 °F
Wind: 2 mph from Southwest

Location: Jan Mayen

Current Time: Sep 1, 2015 at 10:07:19 AM

Latest Report: Sep 1, 2015 at 9:00 AM


Visibility: N/A

Pressure: 30.13 "Hg

Humidity: 93%

Dew point: 39 °F

Location of Jan MayenLocation

Historic Weather in Jan Mayen — Graph

°F

Jan Mayen temperature yesterday

Maximum temperature yesterday: 42 °F (at 5:00 PM)
Minimum temperature yesterday: 36 °F (at 8:00 AM)
Average temperature yesterday: 39 °F

Past Weeks' High & Low Weather Summary

 TemperatureHumidityPressure
High51 °F (Aug 20, 2:00 PM)97% (Aug 22, 4:00 PM)30.17 "Hg (Aug 22, 4:00 PM)
Low36 °F (Aug 31, 8:00 AM)73% (Aug 28, 3:00 AM)29.55 "Hg (Aug 28, 8:00 AM)
Average45 °F90%29.94 "Hg
* Reported Aug 17 8:00 AM — Sep 1 8:00 AM, Jan Mayen, Weather by CustomWeather, © 2015

Note: Actual official high and low records may vary slightly from our data, if they occured in-between our weather recording intervals... More about our weather records

Advertising

Jan Mayen weather history for previous 24 hours

 ConditionsComfort  
Time TempWeatherWind HumidityBarometerVisibility
8:00 AM
Tue, Sep 1
40 °FQuite cool.2 mph93%30.14 "HgN/A
7:00 AM40 °FChilly.2 mph93%30.14 "HgN/A
6:00 AM40 °FChilly.3 mph92%30.15 "HgN/A
4:00 AM39 °FChilly.2 mph89%30.17 "HgN/A
3:00 AM38 °FChilly.1 mph86%30.17 "HgN/A
2:00 AM38 °FOvercast.2 mph84%30.17 "Hg12 mi
1:00 AM39 °FChilly.5 mph83%30.17 "HgN/A
12:00 AM40 °FChilly.5 mph83%30.17 "HgN/A
10:00 PM
Mon, Aug 31
41 °FQuite cool.2 mph91%30.16 "HgN/A
9:00 PM41 °FQuite cool.5 mph87%30.16 "HgN/A
8:00 PM41 °FOvercast.6 mph77%30.15 "Hg19 mi
7:00 PM42 °FQuite cool.6 mph73%30.15 "HgN/A
6:00 PM42 °FQuite cool.6 mph77%30.16 "HgN/A
5:00 PM42 °FPartly sunny.5 mph79%30.16 "Hg19 mi
4:00 PM41 °FQuite cool.3 mph76%30.16 "HgN/A
3:00 PM41 °FQuite cool.3 mph78%30.15 "HgN/A
2:00 PM40 °FScattered clouds.3 mph78%30.15 "Hg19 mi
1:00 PM40 °FChilly.3 mph79%30.14 "HgN/A
12:00 PM38 °FChilly.3 mph83%30.14 "HgN/A
11:00 AM37 °FOvercast.2 mph84%30.13 "Hg12 mi
10:00 AM36 °FChilly.1 mph84%30.12 "HgN/A
Weather by CustomWeather, © 2015

See weather overviewHow to use our weather pages